User: anonymous   Login
Location: Unspecified
(0.0000°N, 0.0000°E)
Time: 10:52:30
(UTC+00:00)
Language:

USA 270 - Orbit

View from above orbital plane
View from above orbital plane
View from above satellite
View from above satellite

Ground track
Ground track

The orbit data is extracted from the following two-line orbital elements,

1 41744U 16052A   18303.78096608 0.00000000  00000-0  00000-0 0    06
2 41744   0.1015  92.4314 0000365 135.1610 224.8558  1.00361273    00
Epoch (UTC): 30 October 2018 18:44:35
Eccentricity: 0.0000365
inclination: 0.1015°
perigee height: 35759 km
apogee height: 35762 km
right ascension of ascending node: 92.4314°
argument of perigee: 135.1610°
revolutions per day: 1.00361273
mean anomaly at epoch: 224.8558°
orbit number at epoch: 0

The dashed part of the orbit path shows where the satellite is in the earth's shadow,  

DLR